Time,TemperatureF,DewpointF,PressureIn,WindDirection,WindDirectionDegrees,WindSpeedMPH,WindSpeedGustMPH,Humidity,HourlyPrecipIn,Conditions,Clouds,dailyrainin,SolarRadiationWatts/m^2,SoftwareType,DateUTC
2013-03-25 00:02:00,5.0,-4.0,-100.00,SSW,208,3.0,9.0,67,0.00,,,0.00,0.000000,,2013-03-25 06:02:00,
2013-03-25 00:12:00,5.0,-4.0,-100.00,SSW,208,3.0,9.0,67,0.00,,,0.00,0.000000,,2013-03-25 06:12:00,
2013-03-25 00:22:00,5.0,-4.0,-100.00,SSW,208,3.0,9.0,67,0.00,,,0.00,0.000000,,2013-03-25 06:22:00,
2013-03-25 00:42:00,5.0,-4.0,-100.00,SW,234,3.0,7.0,67,0.00,,,0.00,0.000000,,2013-03-25 06:42:00,
2013-03-25 00:52:00,5.0,-4.0,-100.00,SW,234,3.0,7.0,67,0.00,,,0.00,0.000000,,2013-03-25 06:52:00,
2013-03-25 01:02:00,5.0,-4.0,-100.00,SW,234,3.0,7.0,67,0.00,,,0.00,0.000000,,2013-03-25 07:02:00,
2013-03-25 01:12:00,5.0,-4.0,-100.00,SW,234,3.0,7.0,67,0.00,,,0.00,0.000000,,2013-03-25 07:12:00,
2013-03-25 01:22:00,5.0,-4.0,-100.00,SW,234,3.0,7.0,67,0.00,,,0.00,0.000000,,2013-03-25 07:22:00,
2013-03-25 01:42:00,4.0,-4.0,-100.00,NW,317,2.0,8.0,67,0.00,,,-99.99,0.000000,,2013-03-25 07:42:00,
2013-03-25 01:53:00,4.0,-4.0,-100.00,NW,317,2.0,8.0,67,0.00,,,-99.99,0.000000,,2013-03-25 07:53:00,
2013-03-25 02:02:00,4.0,-4.0,-100.00,NW,317,2.0,8.0,67,0.00,,,-99.99,0.000000,,2013-03-25 08:02:00,
2013-03-25 02:12:00,4.0,-4.0,-100.00,NW,317,2.0,8.0,67,0.00,,,-99.99,0.000000,,2013-03-25 08:12:00,
2013-03-25 02:22:00,4.0,-4.0,-100.00,NW,317,2.0,8.0,67,0.00,,,-99.99,0.000000,,2013-03-25 08:22:00,
2013-03-25 02:43:00,1.0,-5.0,-100.00,NNE,31,1.0,7.0,74,0.00,,,0.00,1.000000,,2013-03-25 08:43:00,
2013-03-25 02:52:00,1.0,-5.0,-100.00,NNE,31,1.0,7.0,74,0.00,,,0.00,1.000000,,2013-03-25 08:52:00,
2013-03-25 03:02:00,1.0,-5.0,-100.00,NNE,31,1.0,7.0,74,0.00,,,0.00,1.000000,,2013-03-25 09:02:00,
2013-03-25 03:12:00,1.0,-5.0,-100.00,NNE,31,1.0,7.0,74,0.00,,,0.00,1.000000,,2013-03-25 09:12:00,
2013-03-25 03:22:00,1.0,-5.0,-100.00,NNE,31,1.0,7.0,74,0.00,,,0.00,1.000000,,2013-03-25 09:22:00,
2013-03-25 03:43:00,-2.0,-7.0,-100.00,ENE,65,0.0,2.0,79,0.00,,,0.00,1.000000,,2013-03-25 09:43:00,
2013-03-25 03:53:00,-2.0,-7.0,-100.00,ENE,65,0.0,2.0,79,0.00,,,0.00,1.000000,,2013-03-25 09:53:00,
2013-03-25 04:03:00,-2.0,-7.0,-100.00,ENE,65,0.0,2.0,79,0.00,,,0.00,1.000000,,2013-03-25 10:03:00,
2013-03-25 04:12:00,-2.0,-7.0,-100.00,ENE,65,0.0,2.0,79,0.00,,,0.00,1.000000,,2013-03-25 10:12:00,
2013-03-25 04:22:00,-2.0,-7.0,-100.00,ENE,65,0.0,2.0,79,0.00,,,0.00,1.000000,,2013-03-25 10:22:00,
2013-03-25 04:43:00,-1.0,-6.0,-100.00,NE,35,1.0,3.0,77,0.00,,,0.00,1.000000,,2013-03-25 10:43:00,
2013-03-25 04:54:00,-1.0,-6.0,-100.00,NE,35,1.0,3.0,77,0.00,,,0.00,1.000000,,2013-03-25 10:54:00,
2013-03-25 05:03:00,-1.0,-6.0,-100.00,NE,35,1.0,3.0,77,0.00,,,0.00,1.000000,,2013-03-25 11:03:00,
2013-03-25 05:12:00,-1.0,-6.0,-100.00,NE,35,1.0,3.0,77,0.00,,,0.00,1.000000,,2013-03-25 11:12:00,
2013-03-25 05:23:00,-1.0,-6.0,-100.00,NE,35,1.0,3.0,77,0.00,,,0.00,1.000000,,2013-03-25 11:23:00,
2013-03-25 05:42:00,0.0,-6.0,-100.00,NNE,13,1.0,3.0,76,0.00,,,0.00,1.000000,,2013-03-25 11:42:00,
2013-03-25 05:53:00,0.0,-6.0,-100.00,NNE,13,1.0,3.0,76,0.00,,,0.00,1.000000,,2013-03-25 11:53:00,
2013-03-25 06:02:00,0.0,-6.0,-100.00,NNE,13,1.0,3.0,76,0.00,,,0.00,1.000000,,2013-03-25 12:02:00,
2013-03-25 06:13:00,0.0,-6.0,-100.00,NNE,13,1.0,3.0,76,0.00,,,0.00,1.000000,,2013-03-25 12:13:00,
2013-03-25 06:23:00,0.0,-6.0,-100.00,NNE,13,1.0,3.0,76,0.00,,,0.00,1.000000,,2013-03-25 12:23:00,
2013-03-25 06:43:00,1.0,-6.0,-100.00,WSW,239,1.0,3.0,73,0.00,,,0.00,0.000000,,2013-03-25 12:43:00,
2013-03-25 06:53:00,1.0,-6.0,-100.00,WSW,239,1.0,3.0,73,0.00,,,0.00,0.000000,,2013-03-25 12:53:00,
2013-03-25 07:02:00,1.0,-6.0,-100.00,WSW,239,1.0,3.0,73,0.00,,,0.00,0.000000,,2013-03-25 13:02:00,
2013-03-25 07:13:00,1.0,-6.0,-100.00,WSW,239,1.0,3.0,73,0.00,,,0.00,0.000000,,2013-03-25 13:13:00,
2013-03-25 07:22:00,1.0,-6.0,-100.00,WSW,239,1.0,3.0,73,0.00,,,0.00,0.000000,,2013-03-25 13:22:00,
2013-03-25 07:43:00,6.0,-4.0,-100.00,NNE,31,2.0,5.0,62,0.00,,,0.00,8.000000,,2013-03-25 13:43:00,
2013-03-25 07:52:00,6.0,-4.0,-100.00,NNE,31,2.0,5.0,62,0.00,,,0.00,8.000000,,2013-03-25 13:52:00,
2013-03-25 08:03:00,6.0,-4.0,-100.00,NNE,31,2.0,5.0,62,0.00,,,0.00,8.000000,,2013-03-25 14:03:00,
2013-03-25 08:12:00,6.0,-4.0,-100.00,NNE,31,2.0,5.0,62,0.00,,,0.00,8.000000,,2013-03-25 14:12:00,
2013-03-25 08:22:00,6.0,-4.0,-100.00,NNE,31,2.0,5.0,62,0.00,,,0.00,8.000000,,2013-03-25 14:22:00,
2013-03-25 08:43:00,9.0,-3.0,-100.00,North,357,2.0,4.0,58,0.00,,,0.00,39.000000,,2013-03-25 14:43:00,
2013-03-25 08:53:00,9.0,-3.0,-100.00,North,357,2.0,4.0,58,0.00,,,0.00,39.000000,,2013-03-25 14:53:00,
2013-03-25 09:02:00,9.0,-3.0,-100.00,North,357,2.0,4.0,58,0.00,,,0.00,39.000000,,2013-03-25 15:02:00,
2013-03-25 09:12:00,9.0,-3.0,-100.00,North,357,2.0,4.0,58,0.00,,,0.00,39.000000,,2013-03-25 15:12:00,
2013-03-25 09:22:00,9.0,-3.0,-100.00,North,357,2.0,4.0,58,0.00,,,0.00,39.000000,,2013-03-25 15:22:00,
2013-03-25 09:43:00,22.0,0.0,-100.00,NW,323,2.0,8.0,38,0.00,,,0.00,269.000000,,2013-03-25 15:43:00,
2013-03-25 09:53:00,22.0,0.0,-100.00,NW,323,2.0,8.0,38,0.00,,,0.00,269.000000,,2013-03-25 15:53:00,
2013-03-25 10:03:00,22.0,0.0,-100.00,NW,323,2.0,8.0,38,0.00,,,0.00,269.000000,,2013-03-25 16:03:00,
2013-03-25 10:12:00,22.0,0.0,-100.00,NW,323,2.0,8.0,38,0.00,,,0.00,269.000000,,2013-03-25 16:12:00,
2013-03-25 10:23:00,22.0,0.0,-100.00,NW,323,2.0,8.0,38,0.00,,,0.00,269.000000,,2013-03-25 16:23:00,
2013-03-25 10:43:00,27.0,0.0,-100.00,North,357,3.0,8.0,31,0.00,,,0.00,554.000000,,2013-03-25 16:43:00,
2013-03-25 10:53:00,27.0,0.0,-100.00,North,357,3.0,8.0,31,0.00,,,0.00,554.000000,,2013-03-25 16:53:00,
2013-03-25 11:02:00,27.0,0.0,-100.00,North,357,3.0,8.0,31,0.00,,,0.00,554.000000,,2013-03-25 17:02:00,
2013-03-25 11:12:00,27.0,0.0,-100.00,North,357,3.0,8.0,31,0.00,,,0.00,554.000000,,2013-03-25 17:12:00,
2013-03-25 11:23:00,27.0,0.0,-100.00,North,357,3.0,8.0,31,0.00,,,0.00,554.000000,,2013-03-25 17:23:00,
2013-03-25 11:43:00,34.0,1.0,-100.00,SW,232,3.0,8.0,24,0.00,,,0.00,711.000000,,2013-03-25 17:43:00,
2013-03-25 11:53:00,34.0,1.0,-100.00,SW,232,3.0,8.0,24,0.00,,,0.00,711.000000,,2013-03-25 17:53:00,
2013-03-25 12:03:00,34.0,1.0,-100.00,SW,232,3.0,8.0,24,0.00,,,0.00,711.000000,,2013-03-25 18:03:00,
2013-03-25 12:12:00,34.0,1.0,-100.00,SW,232,3.0,8.0,24,0.00,,,0.00,711.000000,,2013-03-25 18:12:00,
2013-03-25 12:22:00,34.0,1.0,-100.00,SW,232,3.0,8.0,24,0.00,,,0.00,711.000000,,2013-03-25 18:22:00,
2013-03-25 12:43:00,34.0,0.0,-100.00,SW,232,4.0,8.0,23,0.00,,,0.00,819.000000,,2013-03-25 18:43:00,
2013-03-25 12:53:00,34.0,0.0,-100.00,SW,232,4.0,8.0,23,0.00,,,0.00,819.000000,,2013-03-25 18:53:00,
2013-03-25 13:03:00,34.0,0.0,-100.00,SW,232,4.0,8.0,23,0.00,,,0.00,819.000000,,2013-03-25 19:03:00,
2013-03-25 13:12:00,34.0,0.0,-100.00,SW,232,4.0,8.0,23,0.00,,,0.00,819.000000,,2013-03-25 19:12:00,
2013-03-25 13:22:00,34.0,0.0,-100.00,SW,232,4.0,8.0,23,0.00,,,0.00,819.000000,,2013-03-25 19:22:00,
2013-03-25 13:43:00,36.0,6.0,-100.00,South,173,4.0,11.0,28,0.01,,,0.01,861.000000,,2013-03-25 19:43:00,
2013-03-25 13:53:00,36.0,6.0,-100.00,South,173,4.0,11.0,28,0.01,,,0.01,861.000000,,2013-03-25 19:53:00,
2013-03-25 14:02:00,36.0,6.0,-100.00,South,173,4.0,11.0,28,0.01,,,0.01,861.000000,,2013-03-25 20:02:00,
2013-03-25 14:12:00,36.0,6.0,-100.00,South,173,4.0,11.0,28,0.01,,,0.01,861.000000,,2013-03-25 20:12:00,
2013-03-25 14:22:00,36.0,6.0,-100.00,South,173,4.0,11.0,28,0.01,,,0.01,861.000000,,2013-03-25 20:22:00,
2013-03-25 14:52:00,35.0,12.0,-100.00,East,95,5.0,10.0,38,0.00,,,0.01,852.000000,,2013-03-25 20:52:00,
2013-03-25 15:02:00,35.0,12.0,-100.00,East,95,5.0,10.0,38,0.00,,,0.01,852.000000,,2013-03-25 21:02:00,
2013-03-25 15:12:00,35.0,12.0,-100.00,East,95,5.0,10.0,38,0.00,,,0.01,852.000000,,2013-03-25 21:12:00,
2013-03-25 15:22:00,35.0,12.0,-100.00,East,95,5.0,10.0,38,0.00,,,0.01,852.000000,,2013-03-25 21:22:00,
2013-03-25 15:43:00,36.0,8.0,-100.00,SW,231,5.0,10.0,31,0.00,,,0.01,757.000000,,2013-03-25 21:43:00,
2013-03-25 15:52:00,36.0,8.0,-100.00,SW,231,5.0,10.0,31,0.00,,,0.01,757.000000,,2013-03-25 21:52:00,
2013-03-25 16:03:00,36.0,8.0,-100.00,SW,231,5.0,10.0,31,0.00,,,0.01,757.000000,,2013-03-25 22:03:00,
2013-03-25 16:12:00,36.0,8.0,-100.00,SW,231,5.0,10.0,31,0.00,,,0.01,757.000000,,2013-03-25 22:12:00,
2013-03-25 16:23:00,36.0,8.0,-100.00,SW,231,5.0,10.0,31,0.00,,,0.01,757.000000,,2013-03-25 22:23:00,
2013-03-25 16:43:00,35.0,7.0,-100.00,SSW,207,4.0,12.0,31,0.00,,,0.01,623.000000,,2013-03-25 22:43:00,
2013-03-25 16:52:00,35.0,7.0,-100.00,SSW,207,4.0,12.0,31,0.00,,,0.01,623.000000,,2013-03-25 22:52:00,
2013-03-25 17:03:00,35.0,7.0,-100.00,SSW,207,4.0,12.0,31,0.00,,,0.01,623.000000,,2013-03-25 23:03:00,
2013-03-25 17:12:00,35.0,7.0,-100.00,SSW,207,4.0,12.0,31,0.00,,,0.01,623.000000,,2013-03-25 23:12:00,
2013-03-25 17:22:00,35.0,7.0,-100.00,SSW,207,4.0,12.0,31,0.00,,,0.01,623.000000,,2013-03-25 23:22:00,
2013-03-25 17:43:00,32.0,6.0,-100.00,SW,225,5.0,14.0,33,0.00,,,0.01,435.000000,,2013-03-25 23:43:00,
2013-03-25 17:53:00,32.0,6.0,-100.00,SW,225,5.0,14.0,33,0.00,,,0.01,435.000000,,2013-03-25 23:53:00,
2013-03-25 18:02:00,32.0,6.0,-100.00,SW,225,5.0,14.0,33,0.00,,,0.01,435.000000,,2013-03-26 00:02:00,
2013-03-25 18:12:00,32.0,6.0,-100.00,SW,225,5.0,14.0,33,0.00,,,0.01,435.000000,,2013-03-26 00:12:00,
2013-03-25 18:22:00,32.0,6.0,-100.00,SW,225,5.0,14.0,33,0.00,,,0.01,435.000000,,2013-03-26 00:22:00,
2013-03-25 18:43:00,28.0,1.0,-100.00,SW,230,3.0,10.0,31,0.00,,,0.01,46.000000,,2013-03-26 00:43:00,
2013-03-25 18:52:00,28.0,1.0,-100.00,SW,230,3.0,10.0,31,0.00,,,0.01,46.000000,,2013-03-26 00:52:00,
2013-03-25 19:02:00,28.0,1.0,-100.00,SW,230,3.0,10.0,31,0.00,,,0.01,46.000000,,2013-03-26 01:02:00,
2013-03-25 19:12:00,28.0,1.0,-100.00,SW,230,3.0,10.0,31,0.00,,,0.01,46.000000,,2013-03-26 01:12:00,
2013-03-25 19:22:00,28.0,1.0,-100.00,SW,230,3.0,10.0,31,0.00,,,0.01,46.000000,,2013-03-26 01:22:00,
2013-03-25 19:42:00,25.0,1.0,-100.00,SSW,211,3.0,7.0,34,0.00,,,0.01,16.000000,,2013-03-26 01:42:00,
2013-03-25 19:52:00,25.0,1.0,-100.00,SSW,211,3.0,7.0,34,0.00,,,0.01,16.000000,,2013-03-26 01:52:00,
2013-03-25 20:02:00,25.0,1.0,-100.00,SSW,211,3.0,7.0,34,0.00,,,0.01,16.000000,,2013-03-26 02:02:00,
2013-03-25 20:12:00,25.0,1.0,-100.00,SSW,211,3.0,7.0,34,0.00,,,0.01,16.000000,,2013-03-26 02:12:00,
2013-03-25 20:22:00,25.0,1.0,-100.00,SSW,211,3.0,7.0,34,0.00,,,0.01,16.000000,,2013-03-26 02:22:00,
2013-03-25 20:43:00,20.0,3.0,-100.00,SSW,209,1.0,5.0,46,0.00,,,0.01,1.000000,,2013-03-26 02:43:00,
2013-03-25 20:52:00,20.0,3.0,-100.00,SSW,209,1.0,5.0,46,0.00,,,0.01,1.000000,,2013-03-26 02:52:00,
2013-03-25 21:02:00,20.0,3.0,-100.00,SSW,209,1.0,5.0,46,0.00,,,0.01,1.000000,,2013-03-26 03:02:00,
2013-03-25 21:12:00,20.0,3.0,-100.00,SSW,209,1.0,5.0,46,0.00,,,0.01,1.000000,,2013-03-26 03:12:00,
2013-03-25 21:22:00,20.0,3.0,-100.00,SSW,209,1.0,5.0,46,0.00,,,0.01,1.000000,,2013-03-26 03:22:00,
2013-03-25 21:43:00,18.0,8.0,-100.00,WSW,255,2.0,4.0,64,0.00,,,0.01,1.000000,,2013-03-26 03:43:00,
2013-03-25 21:53:00,18.0,8.0,-100.00,WSW,255,2.0,4.0,64,0.00,,,0.01,1.000000,,2013-03-26 03:53:00,
2013-03-25 22:03:00,18.0,8.0,-100.00,WSW,255,2.0,4.0,64,0.00,,,0.01,1.000000,,2013-03-26 04:03:00,
2013-03-25 22:12:00,18.0,8.0,-100.00,WSW,255,2.0,4.0,64,0.00,,,0.01,1.000000,,2013-03-26 04:12:00,
2013-03-25 22:23:00,18.0,8.0,-100.00,WSW,255,2.0,4.0,64,0.00,,,0.01,1.000000,,2013-03-26 04:23:00,
2013-03-25 22:43:00,17.0,8.0,-100.00,WNW,286,2.0,6.0,68,0.00,,,0.01,0.000000,,2013-03-26 04:43:00,
2013-03-25 22:53:00,17.0,8.0,-100.00,WNW,286,2.0,6.0,68,0.00,,,0.01,0.000000,,2013-03-26 04:53:00,
2013-03-25 23:02:00,17.0,8.0,-100.00,WNW,286,2.0,6.0,68,0.00,,,0.01,0.000000,,2013-03-26 05:02:00,
2013-03-25 23:12:00,17.0,8.0,-100.00,WNW,286,2.0,6.0,68,0.00,,,0.01,0.000000,,2013-03-26 05:12:00,
2013-03-25 23:22:00,17.0,8.0,-100.00,WNW,286,2.0,6.0,68,0.00,,,0.01,0.000000,,2013-03-26 05:22:00,
2013-03-25 23:42:00,17.0,7.0,-100.00,NW,318,2.0,3.0,65,0.00,,,0.01,1.000000,,2013-03-26 05:42:00,
2013-03-25 23:52:00,17.0,7.0,-100.00,NW,318,2.0,3.0,65,0.00,,,0.01,1.000000,,2013-03-26 05:52:00,